Regional Weather Roundup
Issued by NWS

Home | Current Version | Previous Version | Text Only | Print | Product List | Glossary On
Versions: 1 2 3 4 5 6 7 8 9 10 11 12 13 14 15 16 17 18 19 20 21 22 23 24 25 26 27 28 29 30 31 32 33 34 35 36 37 38 39 40 41 42 43 44 45 46 47 48 49 50
000
ASUS42 KFFC 230503
RWRGA
WEATHER ROUNDUP FOR GEORGIA
NATIONAL WEATHER SERVICE PEACHTREE CITY GA
100 AM EDT SAT AUG 23 2014

NOTE: "FAIR" INDICATES FEW OR NO CLOUDS BELOW 12,000 FEET WITH NO
SIGNIFICANT WEATHER AND/OR OBSTRUCTIONS TO VISIBILITY.

* = USE WITH CAUTION. THE STATIONS MARKED WITH AN ASTERISK MAY NOT
REPORT WEATHER SUCH AS PRECIPITATION, FOG, OR THUNDER AND ARE NOT
QUALITY CONTROLLED BY NWS.

THE REMARK "TC" DENOTES TEMPERATURE READING IN DEGREES CELSIUS.

GAZ001>058-230600-
NORTH GEORGIA

CITY           SKY/WX    TMP DP  RH WIND       PRES   REMARKS
ATLANTA        PTCLDY    80  72  76 NW6       30.04F
ATHENS         CLEAR     80  68  66 NW5       30.01F
CHAMBLEE       CLEAR     76  72  87 CALM      30.04F
PEACHTREE CITY CLEAR     75  73  93 CALM      30.04S
ROME           CLEAR     74  73  97 CALM      30.03S
WEST ATLANTA   CLEAR     78  73  84 CALM      30.03F
GAINESVILLE    CLEAR     77  72  84 W6        30.07S
CARTERSVILLE   CLEAR     73  71  93 CALM      30.04F


CITY           SKY/WX    TMP DP  RH WIND       PRES   REMARKS
DALTON*        CLEAR     73  73 100 CALM      30.03F
MARIETTA       CLEAR     77  73  88 W2        30.04F
$$

GAZ059>098-102>109-230600-
CENTRAL GEORGIA

CITY           SKY/WX    TMP DP  RH WIND       PRES   REMARKS
AUGUSTA-BUSH   CLEAR     76  73  91 CALM      29.96S
AUGUSTA-DANIEL CLEAR     86  70  58 NW5       29.98F HX  90
COLUMBUS       CLEAR     83  73  72 CALM      30.00F
MACON          CLEAR     76  75  97 CALM      29.99F
ROBINS AFB     CLEAR     77  75  92 CALM      29.99F


CITY           SKY/WX    TMP DP  RH WIND       PRES   REMARKS
LAGRANGE*        N/A     79  78  98 CALM      30.03F FOG
SYLVANIA*      CLEAR     78  76  95 CALM      29.97F
$$

GAZ099>101-110>166-230600-
SOUTH GEORGIA

CITY           SKY/WX    TMP DP  RH WIND       PRES   REMARKS
SAVANNAH       CLEAR     83  73  72 SW5       29.97F
VALDOSTA       CLEAR     77  72  84 CALM      30.00S
ALMA           CLEAR     78  75  90 CALM      29.98S
ST SIMONS      CLEAR     83  74  74 SW5       29.98S
FT STEWART     CLEAR     82  74  76 CALM      29.96F
ALBANY         CLEAR     80  75  84 CALM      30.02S
HUNTER AFB     CLEAR     83  75  75 SW5       29.95F HX  90
MOODY AFB      CLEAR     83  73  71 CALM      29.99F
BRUNSWICK      CLEAR     84  70  61 SW5       29.99S


CITY           SKY/WX    TMP DP  RH WIND       PRES   REMARKS
BAINBRIDGE*    CLEAR     81  79  94 CALM      30.00F
MOULTRIE*      CLEAR     79  75  89 W3        30.01F
VIDALIA*         N/A     81  73  78 CALM      29.98F
WAYCROSS*      CLEAR     80  76  90 CALM      29.98F
DOUGLAS*       CLEAR     81  73  78 CALM      30.00F
$$


USA.gov is the U.S. government's official web portal to all federal, state and local government web resources and services.